Regional Weather Roundup
Issued by NWS

Home | Current Version | Previous Version | Text Only | Print | Product List | Glossary Off
Versions: 1 2 3 4 5 6 7 8 9 10 11 12 13 14 15 16 17 18 19 20 21 22 23 24 25 26 27 28 29 30 31 32 33 34 35 36 37 38 39 40 41 42 43 44 45 46 47 48 49 50

000
ASUS43 KMPX 292101
RWRMN
WEATHER ROUNDUP FOR MINNESOTA
NATIONAL WEATHER SERVICE TWIN CITIES/CHANHASSEN MN
400 PM CDT SUN MAR 29 2015


NOTE: "FAIR" INDICATES FEW OR NO CLOUDS BELOW 12,000 FEET WITH NO
SIGNIFICANT WEATHER AND/OR OBSTRUCTIONS TO VISIBILITY. N/A MEANS
CURRENT SKY AND/OR WEATHER CONDITIONS ARE NOT AVAILABLE.

MNZ060>063-068>070-292200-
   Twin Cities Metro

CITY           SKY/WX    TMP DP  RH WIND       PRES   REMARKS
TWIN CITIES    MOSUNNY   52  29  41 NW36G46   29.76R
ST PAUL        MOSUNNY   53  31  42 W23G35    29.76R
CRYSTAL        SUNNY     53  29  39 NW28G38   29.76R
BLAINE         PTSUNNY   54  30  40 NW29G45   29.74R
LAKEVILLE      SUNNY     48  34  57 W29G36    29.76R
EDEN PRAIRIE   SUNNY     53  30  41 NW24G37   29.77R
SOUTH ST PAUL  SUNNY     53  31  44 NW23G35   29.75R
LAKE ELMO      FAIR      52  32  46 NW26G33   29.74R
$$
MNZ001>005-007-008-013>017-022>024-027-028-292200-
   Northwest Minnesota

CITY           SKY/WX    TMP DP  RH WIND       PRES   REMARKS
BEMIDJI        PTSUNNY   46  29  51 NW18G32   29.79R
HALLOCK        SUNNY     52  34  50 NW17G28   29.85R
ROSEAU         MOSUNNY   48  34  57 NW18G28   29.79R
WARROAD        MOSUNNY   46  30  53 NW18G33   29.78R
THIEF RVR FALL MOSUNNY   48  30  49 NW24G31   29.85R
CROOKSTON      MOSUNNY   54  28  37 N30G37    29.87R
FOSSTON        PTSUNNY   46  32  57 NW24G31   29.85R
DETROIT LAKES  SUNNY     50  32  50 NW25G33   29.86S
MOORHEAD       MOSUNNY   55  21  26 NW30G38   29.89R
PARK RAPIDS    MOSUNNY   51  28  41 NW28G44   29.80R
MAHNOMEN       MOCLDY    49  35  59 NW26G33   29.85R
$$
MNZ006-009>011-018-025>026-292200-
   North Central Minnesota

CITY           SKY/WX    TMP DP  RH WIND       PRES   REMARKS
BAUDETTE       SUNNY     45  30  55 NW22G35   29.74R
FLAG ISLAND    SUNNY     41  28  60 NW26      29.75R
INTL FALLS     MOSUNNY   42  27  55 NW26G35   29.68R
WASKISH        PTSUNNY   45  28  53 NW15G30   29.76R
BIG FORK       MOSUNNY   45  28  53 NW10G22   29.71R
LONGVILLE      MOSUNNY   46  28  49 NW16G29   29.76R
GRAND RAPIDS   PTSUNNY   43  27  52 NW30G38   29.71R
CRANE LAKE     CLOUDY    36  34  93 NW13G25   29.65R
ORR            PTSUNNY   41  27  56 NW16G25   29.64R
COOK           PTSUNNY   39  30  70 NW17G33   29.66R
WALKER         MOCLDY    46  29  50 NW15G28   29.77R
$$
MNZ012-019>021-037-292200-
   Northeast Minnesota

CITY           SKY/WX    TMP DP  RH WIND       PRES   REMARKS
DULUTH         CLOUDY    41  31  67 NW22G43   29.64R
ELY            PTSUNNY   37  34  87 NW15G25   29.59R
HIBBING        LGT RAIN  41  33  73 NW23G36   29.67R
EVELETH        PTSUNNY   39  34  81 NW18G25   29.65R
DULUTH HARBOR  MOSUNNY   45  34  65 W31G39    29.66R
TWO HARBORS    PTSUNNY   45  36  70 NW15G25   29.59R
SILVER BAY     PTSUNNY   43  34  70 NW8G23    29.56R
GRAND MARAIS     N/A     43  33  68 VRB6G21   29.48R
G MARAIS ARPRT LGT SNOW  36  28  75 NW17G28   29.45R
$$
MNZ029>031-032-039>041-046>048-054>057-064-292200-
   West Central Minnesota

CITY           SKY/WX    TMP DP  RH WIND       PRES   REMARKS
FERGUS FALLS   MOSUNNY   52  27  37 N24G33    29.90R
WHEATON        SUNNY     52  27  37 NW23G37   29.93S
MORRIS         MOSUNNY   54  30  40 NW29G43   29.89R
ALEXANDRIA     MOSUNNY   51  30  44 NW26G36   29.87R
ELBOW LAKE     FAIR      49  31  49 NW26G32   29.89R
WADENA         MOSUNNY   46  30  53 NW26G39   29.83R
GLENWOOD       SUNNY     50  30  46 NW23G36   29.87R
APPLETON       SUNNY     57  28  33 NW26G37   29.92R
BENSON         MOSUNNY   55  28  35 N29G38    29.89R
ORTONVILLE     SUNNY     55  27  33 NW24G32   29.93R
MADISON        SUNNY     57  25  28 NW26G40   29.93R
WILLMAR        FAIR      54  30  40 NW36G43   29.88R
$$
MNZ033>034-036-042>043-049>051-058-059-292200-
   Central Minnesota

CITY           SKY/WX    TMP DP  RH WIND       PRES   REMARKS
ST CLOUD       MOSUNNY   52  30  43 NW28G41   29.79R
SAUK CENTRE    FAIR      49  30  46 NW24G41   29.85R
PAYNESVILLE    SUNNY     47  31  54 W22G32    29.85R
AITKIN         MOSUNNY   50  28  43 NW15G29   29.73R
PINE RIVER     MOSUNNY   48  28  46 NW20G30   29.80R
BRAINERD       PTSUNNY   50  26  39 NW22G39   29.77R
STAPLES        MOSUNNY   48  28  46 NW28G36   29.82R
LONG PRAIRIE   PTSUNNY   48  30  49 W30G37    29.83R
LITTLE FALLS   MOSUNNY   50  27  40 NW23G32   29.80R
LITCHFIELD     MOSUNNY   54  30  40 NW24G35   29.84R
MAPLE LAKE     MOSUNNY   53  34  49 NW24G32   29.82R
$$
MNZ037-044-045-052-053-292200-
   East Central Minnesota

CITY           SKY/WX    TMP DP  RH WIND       PRES   REMARKS
PRINCETON      MOSUNNY   54  30  40 W25G38    29.76R
MORA           MOSUNNY   50  30  46 NW21G37   29.74R
CAMBRIDGE      MOSUNNY   54  34  47 NW23G35   29.72R
RUSH CITY      MOSUNNY   50  30  45 NW17G29   29.72R
MOOSE LAKE     MOSUNNY   45  28  53 N18G33    29.68R
HINCKLEY       FAIR      46  30  53 NW23G33   29.71R
CLOQUET        CLOUDY    43  30  61 NW16G31   29.67R
MCGREGOR       MOSUNNY   46  30  53 NW23G29   29.72R
$$
MNZ071>073-080-081-089-090-097-098-292200-
   Southwest Minnesota

CITY           SKY/WX    TMP DP  RH WIND       PRES   REMARKS
MONTEVIDEO     MOSUNNY   57  30  35 N30G39    29.91R
GRANITE FALLS  SUNNY     55  31  39 NW31G38   29.92R
CANBY          SUNNY     57  25  29 NW29G36   29.95R
MARSHALL       SUNNY     55  25  30 NW32G43   29.92R
REDWOOD FALLS  MOSUNNY   56  31  38 NW29G41   29.88R
OLIVIA         SUNNY     52  32  46 NW30G41   29.87R
PIPESTONE      MOSUNNY   55  19  24 N30G41    29.95R
WINDOM         SUNNY     55  25  30 NW30G41   29.90R
WORTHINGTON    SUNNY    N/A N/A N/A NW29G40   29.94R
JACKSON        SUNNY     57  21  24 NW32G47   29.90S
TRACY          SUNNY     58  28  32 NW31G40   29.92R
SLAYTON        SUNNY     55  19  24 NW31G43   29.93R
$$
MNZ065>067-074>077-082>085-091>093-292200-
   South Central Minnesota

CITY           SKY/WX    TMP DP  RH WIND       PRES   REMARKS
MANKATO        SUNNY    N/A N/A N/A NW32G39   29.83R
NEW ULM        SUNNY     54  30  40 NW35G46   29.84R
ST JAMES       SUNNY     57  27  30 NW31G41   29.89R
FAIRMONT       SUNNY     57  27  30 NW33G41   29.87R
GLENCOE        SUNNY     52  35  52 NW31G43   29.83R
FARIBAULT      SUNNY     52  34  50 W29G38    29.80R
OWATONNA       SUNNY     52  34  50 NW29G35   29.81R
WASECA         SUNNY     52  37  58 NW36G43   29.83R
ALBERT LEA     SUNNY     54  32  43 NW24G38   29.81R
$$
MNZ078>079-086>088-094>096-292200-
   Southeast Minnesota

CITY           SKY/WX    TMP DP  RH WIND       PRES   REMARKS
ROCHESTER      MOSUNNY   46  35  65 NW26G39   29.76R
RED WING       PTSUNNY   54  34  47 NW14G31   29.72R
STANTON        SUNNY     51  35  53 NW30G36   29.76R
DODGE CENTER   SUNNY     46  34  61 W23G32    29.78R
WINONA         CLOUDY    46  36  66 W9G17     29.73R
AUSTIN         SUNNY     50  36  57 NW24G37   29.79R
PRESTON        PTSUNNY   44  36  72 NW25G31   29.77R
$$
ABBREVIATIONS USED IN REMARKS
   TC - TEMPERATURES IN CELSIUS
  WCI - WIND CHILL INDEX
   HX - HEAT INDEX
  VSB - VISIBILITY
$$



USA.gov is the U.S. government's official web portal to all federal, state and local government web resources and services.